Location: Ebelsberg
(48.2333°N, 14.3333°E)
Time: 00:00:00
(UTC+00:00)

Daily predictions for brighter satellites

Satellite Brightness Start Highest point End
(mag) Time Altitude Azimuth Time Altitude Azimuth Time Altitude Azimuth
CZ-2D R/B 4.4 00:36:06 10° NNE 00:37:41 20° NNE 00:37:41 20° NNE
ADEOS II 4.1 00:59:21 10° NNE 01:01:33 25° NNE 01:01:33 25° NNE
BREEZE-M R/B 4.5 01:30:39 60° ENE 01:30:39 60° ENE 01:38:50 10° ENE
ATLAS CENTAUR R/B 3.7 01:32:08 27° ENE 01:32:08 27° ENE 01:34:29 10° NE
Cosmos 1980 Rocket 4.2 01:31:04 10° NNW 01:41:00 15° SE 01:41:57 10° SE
ATLAS 5 CENTAUR R/B 4.3 01:41:58 13° N 01:42:22 13° N 01:44:34 10° NNE
SL-16 R/B 4.5 01:51:00 16° NNW 01:51:00 16° NNW 01:52:11 10° NNW
Cosmos 2056 Rocket 4.3 01:55:00 47° NE 01:55:00 47° NE 01:58:44 10° NNE
SL-16 R/B 4.2 01:55:57 10° N 02:00:42 26° NE 02:05:26 10° ESE
IRS-1D 4.0 01:58:13 10° NNE 02:02:36 60° NNE 02:02:36 60° NNE
ALOS 3.2 02:00:51 10° NNE 02:05:10 43° E 02:05:10 43° E
Resurs 1-4 Rocket 4.0 02:01:16 10° N 02:03:14 20° NNW 02:03:14 20° NNW
IDEFIX/ARIANE 42P 3.9 02:02:47 10° N 02:05:39 30° NNW 02:05:39 30° NNW
FENGYUN 3A 3.9 02:04:16 10° NNE 02:09:37 61° ESE 02:10:02 59° SE
Cosmos 1833 Rocket 3.0 02:13:00 57° NNW 02:13:00 57° NNW 02:17:47 10° NNE
CZ-2D R/B 4.0 02:16:57 10° N 02:18:58 18° NNW 02:18:58 18° NNW
CENTAUR R/B 3.0 02:27:13 38° S 02:29:12 53° ESE 02:35:57 10° NE
Meteor 1-27 Rocket 3.9 02:28:05 41° S 02:30:12 73° E 02:36:07 10° NNE
BREEZE-M DEB (TANK) 3.8 02:34:33 27° ENE 02:34:33 27° ENE 02:36:24 10° ENE
ARIANE 5 R/B 3.7 02:28:35 10° NNE 02:33:16 38° E 02:37:43 11° SSE
CZ-2C R/B 3.4 02:28:39 10° SE 02:33:43 51° ENE 02:38:56 10° N
Lacrosse 4 Rocket 2.6 02:30:46 18° NNW 02:33:45 42° NE 02:37:59 10° ESE
Cosmos 2100 Rocket 4.2 02:30:37 21° S 02:34:45 68° E 02:40:53 10° NNE
Cosmos 1153 Rocket 4.3 02:34:05 55° SSW 02:35:32 80° W 02:41:50 10° N
CZ-2C R/B 3.8 02:34:56 10° NNE 02:37:41 26° ESE 02:40:15 10° SSE
Helios 1B rocket 3.2 02:34:09 10° NNE 02:38:07 48° E 02:39:02 40° SE
Cosmos 1447 Rocket 4.5 02:32:29 10° NNW 02:38:39 57° W 02:38:47 57° W
Meteor 1-10 Rocket 4.1 02:39:08 64° W 02:39:16 64° WNW 02:44:56 10° N
Cosmos 2082 Rocket 2.1 02:38:50 61° SSW 02:39:52 89° ESE 02:45:32 10° NNE
ADEOS II 3.6 02:39:44 10° N 02:42:28 21° NW 02:42:28 21° NW
Cosmos 2360 Rocket 4.2 02:40:04 10° NNW 02:44:50 27° NE 02:49:34 10° ESE
Cosmos 1452 Rocket 3.8 02:43:49 34° S 02:46:03 65° ESE 02:51:18 10° NNE
Okean 1 4.0 02:47:37 34° SSE 02:49:03 54° E 02:53:00 10° NNE
CZ-2C R/B 2.3 02:44:48 10° NNE 02:49:47 88° ESE 02:51:08 48° SSW
Cosmos 1624 Rocket 4.4 02:50:31 44° WNW 02:50:31 44° WNW 02:55:34 10° NNE
USA 307 3.5 02:51:30 42° NNW 02:51:35 42° NNW 02:55:32 10° ENE
Cosmos 1441 Rocket 4.4 02:55:51 32° NNW 02:55:51 32° NNW 02:58:07 10° N
Cosmos 2346 Rocket 4.3 02:49:44 10° NNW 02:55:48 76° W 03:01:55 10° S
DELTA 2 R/B (1) 4.4 02:56:59 32° SSW 02:57:23 33° S 03:02:21 10° SE
SL-24 R/B - RUBIN 2 4.2 02:57:58 33° S 02:59:34 51° ESE 03:03:48 10° NE
USA 306 3.7 03:00:25 36° NNW 03:00:58 38° N 03:04:50 10° ENE
Cosmos 1459 Rocket 4.0 02:55:35 14° S 03:01:07 87° W 03:07:32 10° N
COSMOS 2406 3.4 03:01:52 44° W 03:03:03 51° NW 03:08:37 10° NNE
BREEZE-M DEB (TANK) 2.7 03:04:00 43° S 03:04:00 43° S 03:08:48 10° SE
NOSS 3-2 (A) 3.3 03:01:33 37° SW 03:03:57 85° SE 03:10:24 10° NE
NOSS 3-2 (C) 4.0 03:01:04 18° S 03:04:57 49° ESE 03:10:58 10° NE
Cosmos 482 Debris 3.9 03:07:26 75° SW 03:07:33 77° SSW 03:12:21 10° ESE
Meteor 2-13 Rocket 4.4 03:02:20 10° NNW 03:08:25 64° W 03:14:28 10° S
ATLAS CENTAUR R/B 2.6 03:08:06 33° NW 03:08:42 34° NW 03:13:07 10° NNE
Cosmos 1328 Rocket 4.4 03:12:11 33° NW 03:12:11 33° NW 03:15:40 10° N
Cosmos 1933 Rocket 3.4 03:07:56 10° NNW 03:12:20 69° W 03:16:42 10° S
DELTA 2 DEB (DPAF) 4.0 03:09:11 10° SSE 03:13:35 90° WNW 03:18:01 10° NNW
CZ-2D R/B 3.7 03:09:52 10° NNE 03:13:50 65° ESE 03:17:46 10° S
OPS 6432 4.5 03:13:22 48° NNW 03:14:03 66° NE 03:17:23 10° SE
Cosmos 2322 Rocket 2.9 03:09:03 10° NNW 03:14:40 56° ENE 03:20:13 10° SE
IRS-1C 4.0 03:09:31 10° NNE 03:14:53 83° WNW 03:19:32 14° SSW
X-37B 2.6 03:18:09 16° SSE 03:18:09 16° SSE 03:19:10 10° SE
Meteor 1-11 Rocket 4.4 03:11:55 10° NNW 03:17:15 34° W 03:18:13 32° WSW
SL-08 R/B 3.3 03:15:16 10° SSE 03:19:57 87° ENE 03:24:47 10° NNW
Cosmos 1980 Rocket 3.6 03:23:06 19° SSW 03:23:06 19° SSW 03:25:03 10° SSW
Cosmos 1975 3.2 03:16:27 10° N 03:20:25 63° ENE 03:24:21 10° SSE
USA 238 DEB 4.0 03:14:48 12° SSW 03:20:38 60° ESE 03:27:19 10° NE
USA 238 4.1 03:14:52 12° SSW 03:20:44 59° ESE 03:27:25 10° NE
COSMOS 2455 3.7 03:16:35 10° NNW 03:22:28 50° NE 03:28:18 10° ESE
BREEZE M DEB (TANK) 3.9 03:16:14 22° WSW 03:24:41 70° SSE 03:28:45 10° ENE
Tsikada Rocket 4.1 03:19:22 10° N 03:25:43 81° E 03:31:56 10° SSE
PAYLOAD A 4.2 03:21:17 10° N 03:25:56 47° WNW 03:28:15 27° SW
Cosmos 1242 Rocket 3.6 03:22:49 10° N 03:26:09 44° ENE 03:29:25 10° SSE
Cosmos 1850 Rocket 4.2 03:21:04 10° NNW 03:26:13 50° WSW 03:31:21 10° S
USA 308 3.8 03:25:30 26° NW 03:27:09 37° N 03:30:59 10° ENE
Cosmos 44 Rocket 3.9 03:26:24 31° WNW 03:27:45 37° NW 03:32:08 10° NNE
ATLAS 5 CENTAUR R/B 4.2 03:24:58 10° NNW 03:28:42 21° NNE 03:32:56 10° ENE
Meteor 2-9 Rocket 4.2 03:24:34 10° NNW 03:30:09 56° W 03:35:33 10° S
Cosmos 1802 Rocket 4.0 03:24:14 10° SSW 03:30:34 68° WNW 03:36:51 10° N
Cosmos 1725 Rocket 4.0 03:24:23 10° S 03:30:43 85° W 03:37:06 10° N
Cosmos 1378 3.0 03:30:12 31° SW 03:31:41 57° WNW 03:35:18 10° N
Meteor 1-19 Rocket 4.1 03:32:50 10° SSW 03:38:10 59° WNW 03:43:34 10° N
Cosmos 2173 Rocket 4.2 03:33:20 14° SW 03:38:18 46° WNW 03:44:10 10° N
Cosmos 1515 Rocket 4.2 03:37:57 27° WSW 03:39:30 35° WNW 03:43:37 10° N
GP-B 3.0 03:35:42 10° S 03:40:05 63° W 03:44:31 10° N
ALOS 3.3 03:38:41 10° N 03:42:29 25° WNW 03:43:37 23° W
Cosmos 1461 3.2 03:42:22 27° WSW 03:44:11 46° NW 03:48:17 10° NNE
Cosmos 2278 4.2 03:39:29 10° NW 03:44:33 35° WSW 03:49:36 10° S
Cosmos 1733 4.3 03:41:36 10° N 03:45:14 46° ENE 03:48:50 10° SSE
SL-16 R/B 2.1 03:39:40 10° NNW 03:45:19 68° WSW 03:50:55 10° SSE
USA 305 3.9 03:44:58 17° WNW 03:47:37 36° N 03:51:26 10° ENE
Meteor 2-19 Rocket 4.4 03:43:51 10° N 03:50:04 86° W 03:56:12 10° S
USA 290 3.4 03:48:14 10° NNW 03:51:21 44° ENE 03:54:25 10° SE
IRS-P3 4.5 03:49:38 10° N 03:54:42 45° WNW 03:59:45 10° SW
SJ 16-02 3.9 03:53:30 10° N 03:56:59 22° NE 04:00:27 10° ESE
Cosmos 1833 Rocket 4.4 03:54:43 13° WNW 03:57:13 16° NW 04:00:44 10° N
CZ-3 R/B 4.2 03:39:43 13° WSW 03:57:30 30° SSW 04:05:08 10° SE
Cosmos 192 4.4 03:55:15 10° SW 04:00:08 59° WNW 04:05:03 10° NNE
Cosmos 2228 Rocket 3.0 03:58:25 10° SSW 04:02:52 65° WNW 04:07:17 10° N
Spot 4 Rocket 4.0 03:59:50 10° N 04:04:58 71° WNW 04:10:03 10° SSW
YAOGAN 6 3.2 04:02:03 10° N 04:05:24 36° WNW 04:08:43 10° SW
Cosmos 1331 Rocket 4.2 04:00:35 10° SW 04:05:33 47° WNW 04:10:34 10° NNE
Cosmos 2219 Rocket 3.4 04:00:35 10° NNW 04:06:00 44° NE 04:11:21 10° SE
Cosmos 1302 Rocket 4.0 04:04:23 10° SSW 04:09:40 84° WNW 04:15:01 10° NNE
Cosmos 1726 3.1 04:06:33 10° N 04:10:06 50° ENE 04:13:37 10° SSE
Cosmos 1484 Rocket 3.7 04:06:58 10° N 04:10:29 31° WNW 04:13:59 10° SW
Lacrosse 4 Rocket 2.5 04:08:31 10° NW 04:12:12 26° WSW 04:15:53 10° SSW
ARIANE 5 R/B 3.2 04:07:51 10° N 04:12:16 32° WNW 04:16:39 10° SW
Helios 1B rocket 3.9 04:10:01 10° NNW 04:12:55 19° WNW 04:15:11 13° W
Lacrosse 5 rocket 3.2 04:09:05 10° SSW 04:13:09 33° SE 04:17:11 10° ENE
CZ-2C R/B 3.5 04:10:00 10° SSW 04:14:18 25° W 04:18:42 10° NW
DMSP B5D2-2 4.1 04:09:07 10° SSE 04:14:24 86° WSW 04:19:44 10° NNW
Meteor 1-29 3.4 04:13:05 10° N 04:16:09 35° WNW 04:19:12 10° SW
CZ-2C R/B 3.3 04:12:47 10° N 04:18:25 59° WNW 04:23:46 10° SSW
CENTAUR R/B 3.1 04:14:25 11° WSW 04:20:04 45° NNW 04:27:12 10° NE
CZ-4C R/B 4.0 04:17:08 10° SSW 04:21:08 40° W 04:25:16 10° NNW
Cosmos 2333 Rocket 2.4 04:16:36 10° NNW 04:22:20 77° ENE 04:28:00 10° SSE
COSMO-SKYMED 1 2.5 04:19:13 10° S 04:23:33 71° WSW 04:27:54 10° NNW
Cosmos 1707 Rocket 3.5 04:19:46 10° SSW 04:24:05 65° WNW 04:28:24 10° N
Cosmos 2082 Rocket 3.6 04:20:42 11° W 04:24:45 21° NW 04:28:58 10° N
CZ-2C R/B 4.1 04:24:28 10° NNW 04:27:15 15° NW 04:29:58 10° W
Envisat 3.6 04:24:09 10° N 04:28:47 37° WNW 04:33:24 10° SW
Cosmos 2360 Rocket 2.2 04:23:43 10° NNW 04:29:17 64° WSW 04:34:50 10° SSE
USA 276 2.3 04:26:34 10° WSW 04:29:33 63° SSE 04:32:34 10° ENE
Cosmos 968 Rocket 3.9 04:26:11 10° NW 04:30:57 39° WSW 04:35:41 10° S
Cosmos 2237 Rocket 4.4 04:26:33 10° N 04:30:58 23° NE 04:35:23 10° E
USA 307 3.8 04:27:40 10° WNW 04:31:34 39° N 04:35:27 10° E
ERBS 4.2 04:29:57 10° NNW 04:32:01 18° NNE 04:34:04 10° ENE
Meteor 2-10 4.0 04:27:00 10° NNW 04:32:07 65° W 04:37:06 10° S
SWAS 4.4 04:28:55 10° SW 04:33:11 72° WNW 04:37:28 10° NNE
COSMOS 2487 2.1 04:30:56 10° SSW 04:33:46 73° ESE 04:36:38 10° NNE
H-2A R/B 3.7 04:30:52 10° NNE 04:36:02 42° E 04:41:08 10° SSE
Spot 1 4.3 04:31:40 10° S 04:36:34 75° WSW 04:41:14 10° NNW
H-2A R/B 3.6 04:36:42 10° N 04:39:52 28° WNW 04:43:02 10° SW
USA 306 3.7 04:36:57 10° WNW 04:40:53 42° NNE 04:44:49 10° E
